START_TIME,STEP,MOV.,A46,t_acc.,A13,t_acc.,M47,t_acc.,A17,t_acc.,A28,t_acc.,M38,t_acc.
1979-03-02 03:00:14.970 ,5,0,,0,144.,4.8,26.,4.8,,0,0.,4.8,22.,4.8
1979-03-02 03:00:19.770 ,5,0,,0,140.,4.8,23.,4.8,,0,0.,4.8,22.,4.8
1979-03-02 03:00:24.570 ,5,0,,0,78.,4.8,11.,4.8,,0,0.,4.8,18.,4.8
1979-03-02 03:00:29.370 ,5,0,,0,0.,4.8,0.,4.8,,0,0.,4.8,11.,4.8
1979-03-02 03:00:34.170 ,5,0,,0,0.,4.8,0.,4.8,,0,0.,4.8,21.,4.8
1979-03-02 03:00:38.970 ,6,0,,0,1.,4.8,0.,4.8,,0,0.,4.8,18.,4.8
1979-03-02 03:00:43.770 ,6,0,,0,0.,4.8,0.,4.8,,0,0.,4.8,21.,4.8
1979-03-02 03:00:48.570 ,6,0,,0,29.,4.8,6.,4.8,,0,0.,4.8,26.,4.8
1979-03-02 03:00:53.370 ,6,0,,0,126.,4.8,25.,4.8,,0,0.,4.8,13.,4.8
1979-03-02 03:00:58.170 ,6,0,,0,110.,4.8,20.,4.8,,0,0.,4.8,22.,4.8
1979-03-02 03:01:02.970 ,7,0,,0,114.,4.8,24.,4.8,,0,0.,4.8,28.,4.8
1979-03-02 03:01:07.770 ,7,0,,0,92.,4.8,22.,4.8,,0,0.,4.8,11.,4.8
1979-03-02 03:01:12.570 ,7,0,,0,13.,4.8,0.,4.8,,0,0.,4.8,0.,4.8
1979-03-02 03:01:17.370 ,7,0,,0,0.,4.8,0.,4.8,,0,0.,4.8,0.,4.8
1979-03-02 03:01:22.170 ,7,0,,0,0.,4.8,0.,4.8,,0,0.,4.8,0.,4.8
1979-03-02 03:01:26.960 ,7,0,,0,0.,4.8,0.,4.8,,0,0.,4.8,0.,4.8
1979-03-02 03:01:31.760 ,7,0,,0,1.,4.8,0.,4.8,,0,0.,4.8,0.,4.8
1979-03-02 03:01:36.570 ,7,0,,0,6.,4.8,0.,4.8,,0,0.,4.8,0.,4.8
1979-03-02 03:01:41.370 ,7,0,,0,10.,4.8,0.,4.8,,0,0.,4.8,0.,4.8
1979-03-02 03:01:46.170 ,7,0,,0,8.,4.8,0.,4.8,,0,0.,4.8,0.,4.8
1979-03-02 03:01:50.960 ,6,0,,0,12.,4.8,0.,4.8,,0,0.,4.8,0.,4.8
1979-03-02 03:01:55.760 ,6,0,,0,50.,4.8,12.,4.8,,0,0.,4.8,4.,4.8
1979-03-02 03:02:00.570 ,6,0,,0,74.,4.8,21.,4.8,,0,0.,4.8,20.,4.8
1979-03-02 03:02:05.370 ,6,0,,0,0.,4.8,0.,4.8,,0,0.,4.8,17.,4.8
1979-03-02 03:02:10.170 ,6,0,,0,0.,4.8,0.,4.8,,0,0.,4.8,16.,4.8
1979-03-02 03:02:14.960 ,5,0,,0,0.,4.8,0.,4.8,,0,0.,4.8,11.,4.8
1979-03-02 03:02:19.760 ,5,0,,0,0.,4.8,0.,4.8,,0,0.,4.8,17.,4.8
1979-03-02 03:02:24.570 ,5,0,,0,19.,4.8,3.,4.8,,0,0.,4.8,16.,4.8
1979-03-02 03:02:29.370 ,5,0,,0,132.,4.8,34.,4.8,,0,0.,4.8,27.,4.8
1979-03-02 03:02:34.170 ,5,0,,0,102.,4.8,23.,4.8,,0,0.,4.8,27.,4.8
1979-03-02 03:02:38.960 ,4,0,,0,114.,4.8,20.,4.8,,0,0.,4.8,22.,4.8
1979-03-02 03:02:43.760 ,4,0,,0,104.,4.8,23.,4.8,,0,0.,4.8,16.,4.8
1979-03-02 03:02:48.570 ,4,0,,0,70.,4.8,7.,4.8,,0,0.,4.8,20.,4.8
1979-03-02 03:02:53.370 ,4,0,,0,0.,4.8,0.,4.8,,0,0.,4.8,24.,4.8
1979-03-02 03:02:58.170 ,4,0,,0,0.,4.8,0.,4.8,,0,0.,4.8,23.,4.8
1979-03-02 03:03:02.960 ,3,0,,0,0.,4.8,0.,4.8,,0,0.,4.8,20.,4.8
1979-03-02 03:03:07.760 ,3,0,,0,0.,4.8,0.,4.8,,0,0.,4.8,16.,4.8
1979-03-02 03:03:12.570 ,3,0,,0,7.,4.8,4.,4.8,,0,0.,4.8,7.,4.8
1979-03-02 03:03:17.370 ,3,0,,0,46.,4.8,17.,4.8,,0,0.,4.8,10.,4.8
1979-03-02 03:03:22.170 ,3,0,,0,50.,4.8,17.,4.8,,0,0.,4.8,10.,4.8
1979-03-02 03:03:26.960 ,2,0,,0,59.,4.8,23.,4.8,,0,0.,4.8,7.,4.8
1979-03-02 03:03:31.760 ,2,0,,0,43.,4.8,18.,4.8,,0,0.,4.8,7.,4.8
1979-03-02 03:03:36.570 ,2,0,,0,43.,4.8,12.,4.8,,0,0.,4.8,8.,4.8
1979-03-02 03:03:41.370 ,2,0,,0,0.,4.8,0.,4.8,,0,0.,4.8,10.,4.8
1979-03-02 03:03:46.170 ,2,0,,0,0.,4.8,0.,4.8,,0,0.,4.8,10.,4.8
1979-03-02 03:03:50.960 ,1,0,,0,0.,4.8,0.,4.8,,0,0.,4.8,8.,4.8
1979-03-02 03:03:55.760 ,1,0,,0,1.,4.8,0.,4.8,,0,0.,4.8,9.,4.8
1979-03-02 03:04:00.570 ,1,0,,0,10.,4.8,0.,4.8,,0,0.,4.8,9.,4.8
1979-03-02 03:04:05.370 ,1,0,,0,61.,4.8,16.,4.8,,0,0.,4.8,11.,4.8
1979-03-02 03:04:10.170 ,1,0,,0,66.,4.8,3.,4.8,,0,0.,4.8,15.,4.8
1979-03-02 03:04:14.960 ,0,0,,0,70.,4.8,5.,4.8,,0,0.,4.8,15.,4.8
1979-03-02 03:04:19.770 ,0,0,,0,76.,4.8,9.,4.8,,0,0.,4.8,2.,4.8
1979-03-02 03:04:24.570 ,0,0,,0,68.,4.8,10.,4.8,,0,0.,4.8,9.,4.8
1979-03-02 03:04:29.360 ,0,0,,0,0.,4.8,0.,4.8,,0,0.,4.8,9.,4.8
1979-03-02 03:04:34.170 ,0,0,,0,0.,4.8,0.,4.8,,0,0.,4.8,10.,4.8
1979-03-02 03:04:38.960 ,0,0,,0,0.,4.8,0.,4.8,,0,0.,4.8,16.,4.8
1979-03-02 03:04:43.760 ,0,0,,0,0.,4.8,0.,4.8,,0,0.,4.8,10.,4.8
1979-03-02 03:04:48.570 ,0,0,,0,11.,4.8,1.,4.8,,0,0.,4.8,8.,4.8
1979-03-02 03:04:53.360 ,0,0,,0,92.,4.8,15.,4.8,,0,0.,4.8,11.,4.8
1979-03-02 03:04:58.170 ,0,0,,0,94.,4.8,16.,4.8,,0,0.,4.8,13.,4.8
1979-03-02 03:05:02.960 ,1,0,,0,92.,4.8,12.,4.8,,0,0.,4.8,7.,4.8
1979-03-02 03:05:07.760 ,1,0,,0,68.,4.8,13.,4.8,,0,0.,4.8,12.,4.8
1979-03-02 03:05:12.570 ,1,0,,0,64.,4.8,7.,4.8,,0,0.,4.8,8.,4.8
1979-03-02 03:05:17.370 ,1,0,,0,0.,4.8,0.,4.8,,0,0.,4.8,8.,4.8
1979-03-02 03:05:22.170 ,1,0,,0,0.,4.8,0.,4.8,,0,0.,4.8,5.,4.8
1979-03-02 03:05:26.960 ,2,0,,0,0.,4.8,0.,4.8,,0,0.,4.8,8.,4.8
1979-03-02 03:05:31.770 ,2,0,,0,0.,4.8,0.,4.8,,0,0.,4.8,9.,4.8
1979-03-02 03:05:36.570 ,2,0,,0,3.,4.8,0.,4.8,,0,0.,4.8,11.,4.8
1979-03-02 03:05:41.360 ,2,0,,0,54.,4.8,14.,4.8,,0,0.,4.8,10.,4.8
1979-03-02 03:05:46.170 ,2,0,,0,54.,4.8,14.,4.8,,0,0.,4.8,8.,4.8
1979-03-02 03:05:50.960 ,3,0,,0,53.,4.8,15.,4.8,,0,0.,4.8,9.,4.8
1979-03-02 03:05:55.760 ,3,0,,0,55.,4.8,16.,4.8,,0,0.,4.8,3.,4.8
1979-03-02 03:06:00.570 ,3,0,,0,40.,4.8,16.,4.8,,0,0.,4.8,10.,4.8
1979-03-02 03:06:05.360 ,3,0,,0,0.,4.8,0.,4.8,,0,0.,4.8,9.,4.8
1979-03-02 03:06:10.170 ,3,0,,0,0.,4.8,0.,4.8,,0,0.,4.8,12.,4.8
1979-03-02 03:06:14.960 ,4,0,,0,0.,4.8,0.,4.8,,0,0.,4.8,10.,4.8
1979-03-02 03:06:19.770 ,4,0,,0,0.,4.8,0.,4.8,,0,0.,4.8,13.,4.8
1979-03-02 03:06:24.570 ,4,0,,0,12.,4.8,3.,4.8,,0,0.,4.8,6.,4.8
1979-03-02 03:06:29.360 ,4,0,,0,38.,4.8,10.,4.8,,0,0.,4.8,15.,4.8
1979-03-02 03:06:34.170 ,4,0,,0,63.,4.8,14.,4.8,,0,0.,4.8,10.,4.8
1979-03-02 03:06:38.960 ,5,0,,0,58.,4.8,13.,4.8,,0,0.,4.8,5.,4.8
1979-03-02 03:06:43.760 ,5,0,,0,70.,4.8,19.,4.8,,0,0.,4.8,15.,4.8
1979-03-02 03:06:48.570 ,5,0,,0,58.,4.8,24.,4.8,,0,0.,4.8,12.,4.8
1979-03-02 03:06:53.360 ,5,0,,0,0.,4.8,0.,4.8,,0,0.,4.8,10.,4.8
1979-03-02 03:06:58.170 ,5,0,,0,0.,4.8,0.,4.8,,0,0.,4.8,23.,4.8
1979-03-02 03:07:02.960 ,6,0,,0,0.,4.8,0.,4.8,,0,0.,4.8,13.,4.8
1979-03-02 03:07:07.760 ,6,0,,0,0.,4.8,0.,4.8,,0,0.,4.8,25.,4.8
1979-03-02 03:07:12.570 ,6,0,,0,20.,4.8,6.,4.8,,0,0.,4.8,18.,4.8
1979-03-02 03:07:17.360 ,6,0,,0,160.,4.8,40.,4.8,,0,0.,4.8,13.,4.8
1979-03-02 03:07:22.170 ,6,0,,0,136.,4.8,42.,4.8,,0,0.,4.8,23.,4.8
1979-03-02 03:07:26.960 ,7,0,,0,98.,4.8,27.,4.8,,0,0.,4.8,19.,4.8
1979-03-02 03:07:31.770 ,7,0,,0,90.,4.8,25.,4.8,,0,0.,4.8,15.,4.8
1979-03-02 03:07:36.570 ,7,0,,0,10.,4.8,0.,4.8,,0,0.,4.8,0.,4.8
1979-03-02 03:07:41.360 ,7,0,,0,0.,4.8,0.,4.8,,0,0.,4.8,0.,4.8
1979-03-02 03:07:46.170 ,7,0,,0,0.,4.8,0.,4.8,,0,0.,4.8,0.,4.8
1979-03-02 03:07:50.960 ,7,0,,0,0.,4.8,0.,4.8,,0,0.,4.8,0.,4.8
1979-03-02 03:07:55.760 ,7,0,,0,0.,4.8,0.,4.8,,0,0.,4.8,0.,4.8
1979-03-02 03:08:00.570 ,7,0,,0,0.,4.8,0.,4.8,,0,0.,4.8,0.,4.8
1979-03-02 03:08:05.360 ,7,0,,0,10.,4.8,0.,4.8,,0,0.,4.8,0.,4.8
1979-03-02 03:08:10.170 ,7,0,,0,16.,4.8,0.,4.8,,0,0.,4.8,0.,4.8
1979-03-02 03:08:14.960 ,6,0,,0,14.,4.8,0.,4.8,,0,0.,4.8,0.,4.8
1979-03-02 03:08:19.770 ,6,0,,0,36.,4.8,7.,4.8,,0,0.,4.8,6.,4.8
1979-03-02 03:08:24.570 ,6,0,,0,104.,4.8,35.,4.8,,0,0.,4.8,24.,4.8
1979-03-02 03:08:29.370 ,6,0,,0,0.,4.8,0.,4.8,,0,0.,4.8,17.,4.8
1979-03-02 03:08:34.170 ,6,0,,0,0.,4.8,0.,4.8,,0,0.,4.8,28.,4.8
1979-03-02 03:08:38.970 ,5,0,,0,0.,4.8,0.,4.8,,0,0.,4.8,23.,4.8
1979-03-02 03:08:43.770 ,5,0,,0,0.,4.8,0.,4.8,,0,0.,4.8,26.,4.8
1979-03-02 03:08:48.570 ,5,0,,0,11.,4.8,4.,4.8,,0,0.,4.8,13.,4.8
1979-03-02 03:08:53.370 ,5,0,,0,84.,4.8,27.,4.8,,0,0.,4.8,20.,4.8
1979-03-02 03:08:58.170 ,5,0,,0,80.,4.8,26.,4.8,,0,0.,4.8,18.,4.8
1979-03-02 03:09:02.970 ,4,0,,0,90.,4.8,22.,4.8,,0,0.,4.8,24.,4.8
1979-03-02 03:09:07.770 ,4,0,,0,74.,4.8,28.,4.8,,0,0.,4.8,16.,4.8
1979-03-02 03:09:12.570 ,4,0,,0,68.,4.8,21.,4.8,,0,0.,4.8,14.,4.8
1979-03-02 03:09:17.370 ,4,0,,0,0.,4.8,0.,4.8,,0,0.,4.8,18.,4.8
1979-03-02 03:09:22.170 ,4,0,,0,0.,4.8,0.,4.8,,0,0.,4.8,7.,4.8
1979-03-02 03:09:26.970 ,3,0,,0,0.,4.8,0.,4.8,,0,0.,4.8,11.,4.8
1979-03-02 03:09:31.770 ,3,0,,0,0.,4.8,0.,4.8,,0,0.,4.8,22.,4.8
1979-03-02 03:09:36.570 ,3,0,,0,18.,4.8,2.,4.8,,0,0.,4.8,11.,4.8
1979-03-02 03:09:41.370 ,3,0,,0,88.,4.8,17.,4.8,,0,0.,4.8,11.,4.8
1979-03-02 03:09:46.170 ,3,0,,0,98.,4.8,22.,4.8,,0,0.,4.8,9.,4.8
1979-03-02 03:09:50.970 ,2,0,,0,78.,4.8,8.,4.8,,0,0.,4.8,22.,4.8
1979-03-02 03:09:55.770 ,2,0,,0,72.,4.8,16.,4.8,,0,0.,4.8,8.,4.8
1979-03-02 03:10:00.570 ,2,0,,0,52.,4.8,12.,4.8,,0,0.,4.8,14.,4.8
1979-03-02 03:10:05.370 ,2,0,,0,0.,4.8,0.,4.8,,0,0.,4.8,10.,4.8
1979-03-02 03:10:10.170 ,2,0,,0,0.,4.8,0.,4.8,,0,0.,4.8,9.,4.8
1979-03-02 03:10:14.970 ,1,0,,0,0.,4.8,0.,4.8,,0,0.,4.8,8.,4.8
1979-03-02 03:10:19.770 ,1,0,,0,0.,4.8,0.,4.8,,0,0.,4.8,12.,4.8
1979-03-02 03:10:24.570 ,1,0,,0,9.,4.8,2.,4.8,,0,0.,4.8,11.,4.8
1979-03-02 03:10:29.370 ,1,0,,0,72.,4.8,8.,4.8,,0,0.,4.8,12.,4.8
1979-03-02 03:10:34.170 ,1,0,,0,66.,4.8,9.,4.8,,0,0.,4.8,12.,4.8
1979-03-02 03:10:38.970 ,0,0,,0,70.,4.8,8.,4.8,,0,0.,4.8,8.,4.8
1979-03-02 03:10:43.770 ,0,0,,0,70.,4.8,10.,4.8,,0,0.,4.8,6.,4.8
1979-03-02 03:10:48.570 ,0,0,,0,84.,4.8,6.,4.8,,0,0.,4.8,9.,4.8
1979-03-02 03:10:53.370 ,0,0,,0,0.,4.8,0.,4.8,,0,0.,4.8,10.,4.8
1979-03-02 03:10:58.170 ,0,0,,0,0.,4.8,0.,4.8,,0,0.,4.8,20.,4.8
1979-03-02 03:11:02.970 ,0,0,,0,0.,4.8,0.,4.8,,0,0.,4.8,15.,4.8
1979-03-02 03:11:07.770 ,0,0,,0,0.,4.8,0.,4.8,,0,0.,4.8,7.,4.8
1979-03-02 03:11:12.570 ,0,0,,0,16.,4.8,2.,4.8,,0,0.,4.8,16.,4.8
1979-03-02 03:11:17.370 ,0,0,,0,100.,4.8,13.,4.8,,0,0.,4.8,13.,4.8
1979-03-02 03:11:22.170 ,0,0,,0,112.,4.8,8.,4.8,,0,0.,4.8,17.,4.8
1979-03-02 03:11:26.970 ,1,0,,0,116.,4.8,12.,4.8,,0,0.,4.8,16.,4.8
1979-03-02 03:11:31.770 ,1,0,,0,84.,4.8,8.,4.8,,0,0.,4.8,12.,4.8
1979-03-02 03:11:36.570 ,1,0,,0,60.,4.8,7.,4.8,,0,0.,4.8,9.,4.8
1979-03-02 03:11:41.370 ,1,0,,0,0.,4.8,0.,4.8,,0,0.,4.8,10.,4.8
1979-03-02 03:11:46.170 ,1,0,,0,0.,4.8,0.,4.8,,0,0.,4.8,12.,4.8
1979-03-02 03:11:50.970 ,2,0,,0,0.,4.8,0.,4.8,,0,0.,4.8,5.,4.8
1979-03-02 03:11:55.770 ,2,0,,0,0.,4.8,0.,4.8,,0,0.,4.8,8.,4.8
1979-03-02 03:12:00.570 ,2,0,,0,9.,4.8,1.,4.8,,0,0.,4.8,9.,4.8
1979-03-02 03:12:05.370 ,2,0,,0,58.,4.8,12.,4.8,,0,0.,4.8,6.,4.8
1979-03-02 03:12:10.170 ,2,0,,0,76.,4.8,24.,4.8,,0,0.,4.8,12.,4.8
1979-03-02 03:12:14.970 ,3,0,,0,82.,4.8,15.,4.8,,0,0.,4.8,16.,4.8
1979-03-02 03:12:19.770 ,3,0,,0,86.,4.8,19.,4.8,,0,0.,4.8,8.,4.8
1979-03-02 03:12:24.570 ,3,0,,0,74.,4.8,13.,4.8,,0,0.,4.8,23.,4.8
1979-03-02 03:12:29.370 ,3,0,,0,0.,4.8,0.,4.8,,0,0.,4.8,15.,4.8
1979-03-02 03:12:34.170 ,3,0,,0,0.,4.8,0.,4.8,,0,0.,4.8,18.,4.8
1979-03-02 03:12:38.970 ,4,0,,0,0.,4.8,0.,4.8,,0,0.,4.8,7.,4.8
1979-03-02 03:12:43.770 ,4,0,,0,0.,4.8,0.,4.8,,0,0.,4.8,18.,4.8
1979-03-02 03:12:48.570 ,4,0,,0,20.,4.8,5.,4.8,,0,0.,4.8,22.,4.8
1979-03-02 03:12:53.370 ,4,0,,0,128.,4.8,25.,4.8,,0,0.,4.8,23.,4.8
1979-03-02 03:12:58.170 ,4,0,,0,140.,4.8,22.,4.8,,0,0.,4.8,21.,4.8
1979-03-02 03:13:02.970 ,5,0,,0,152.,4.8,32.,4.8,,0,0.,4.8,19.,4.8
1979-03-02 03:13:07.770 ,5,0,,0,152.,4.8,29.,4.8,,0,0.,4.8,18.,4.8
1979-03-02 03:13:12.570 ,5,0,,0,152.,4.8,36.,4.8,,0,0.,4.8,28.,4.8
1979-03-02 03:13:17.370 ,5,0,,0,0.,4.8,0.,4.8,,0,0.,4.8,28.,4.8
1979-03-02 03:13:22.170 ,5,0,,0,0.,4.8,0.,4.8,,0,0.,4.8,25.,4.8
1979-03-02 03:13:26.970 ,6,0,,0,0.,4.8,0.,4.8,,0,0.,4.8,27.,4.8
1979-03-02 03:13:31.770 ,6,0,,0,0.,4.8,0.,4.8,,0,0.,4.8,32.,4.8
1979-03-02 03:13:36.570 ,6,0,,0,36.,4.8,8.,4.8,,0,0.,4.8,37.,4.8
1979-03-02 03:13:41.370 ,6,0,,0,236.,4.8,38.,4.8,,0,0.,4.8,40.,4.8
1979-03-02 03:13:46.170 ,6,0,,0,264.,4.8,38.,4.8,,0,0.,4.8,28.,4.8
1979-03-02 03:13:50.970 ,7,0,,0,232.,4.8,32.,4.8,,0,0.,4.8,27.,4.8
1979-03-02 03:13:55.770 ,7,0,,0,152.,4.8,22.,4.8,,0,0.,4.8,21.,4.8
1979-03-02 03:14:00.570 ,7,0,,0,14.,4.8,0.,4.8,,0,0.,4.8,0.,4.8
1979-03-02 03:14:05.370 ,7,0,,0,0.,4.8,0.,4.8,,0,0.,4.8,0.,4.8
1979-03-02 03:14:10.170 ,7,0,,0,0.,4.8,0.,4.8,,0,0.,4.8,0.,4.8
1979-03-02 03:14:14.970 ,7,0,,0,0.,4.8,0.,4.8,,0,0.,4.8,0.,4.8
1979-03-02 03:14:19.770 ,7,0,,0,0.,4.8,0.,4.8,,0,0.,4.8,0.,4.8
1979-03-02 03:14:24.570 ,7,0,,0,2.,4.8,0.,4.8,,0,0.,4.8,0.,4.8
1979-03-02 03:14:29.370 ,7,0,,0,10.,4.8,0.,4.8,,0,0.,4.8,0.,4.8
1979-03-02 03:14:34.170 ,7,0,,0,12.,4.8,0.,4.8,,0,0.,4.8,0.,4.8
1979-03-02 03:14:38.970 ,6,0,,0,9.,4.8,0.,4.8,,0,0.,4.8,0.,4.8
1979-03-02 03:14:43.770 ,6,0,,0,86.,4.8,10.,4.8,,0,0.,4.8,10.,4.8
1979-03-02 03:14:48.570 ,6,0,,0,240.,4.8,30.,4.8,,0,0.,4.8,34.,4.8
1979-03-02 03:14:53.370 ,6,0,,0,0.,4.8,0.,4.8,,0,0.,4.8,33.,4.8
1979-03-02 03:14:58.170 ,6,0,,0,0.,4.8,0.,4.8,,0,0.,4.8,40.,4.8
1979-03-02 03:15:02.970 ,5,0,,0,0.,4.8,0.,4.8,,0,0.,4.8,36.,4.8
1979-03-02 03:15:07.770 ,5,0,,0,0.,4.8,0.,4.8,,0,0.,4.8,28.,4.8
1979-03-02 03:15:12.570 ,5,0,,0,24.,4.8,7.,4.8,,0,0.,4.8,29.,4.8
1979-03-02 03:15:17.370 ,5,0,,0,188.,4.8,34.,4.8,,0,0.,4.8,30.,4.8
1979-03-02 03:15:22.170 ,5,0,,0,148.,4.8,30.,4.8,,0,0.,4.8,24.,4.8
1979-03-02 03:15:26.970 ,4,0,,0,188.,4.8,36.,4.8,,0,0.,4.8,30.,4.8
1979-03-02 03:15:31.770 ,4,0,,0,164.,4.8,30.,4.8,,0,0.,4.8,38.,4.8
1979-03-02 03:15:36.570 ,4,0,,0,118.,4.8,24.,4.8,,0,0.,4.8,25.,4.8
1979-03-02 03:15:41.370 ,4,0,,0,0.,4.8,0.,4.8,,0,0.,4.8,16.,4.8
1979-03-02 03:15:46.170 ,4,0,,0,0.,4.8,0.,4.8,,0,0.,4.8,22.,4.8
1979-03-02 03:15:50.970 ,3,0,,0,0.,4.8,0.,4.8,,0,0.,4.8,16.,4.8
1979-03-02 03:15:55.770 ,3,0,,0,0.,4.8,0.,4.8,,0,0.,4.8,20.,4.8
1979-03-02 03:16:00.570 ,3,0,,0,19.,4.8,5.,4.8,,0,0.,4.8,16.,4.8
1979-03-02 03:16:05.370 ,3,0,,0,90.,4.8,15.,4.8,,0,0.,4.8,20.,4.8
1979-03-02 03:16:10.170 ,3,0,,0,90.,4.8,24.,4.8,,0,0.,4.8,12.,4.8
1979-03-02 03:16:14.970 ,2,0,,0,108.,4.8,12.,4.8,,0,0.,4.8,14.,4.8
1979-03-02 03:16:19.770 ,2,0,,0,84.,4.8,13.,4.8,,0,0.,4.8,12.,4.8
1979-03-02 03:16:24.570 ,2,0,,0,66.,4.8,17.,4.8,,0,0.,4.8,10.,4.8
1979-03-02 03:16:29.370 ,2,0,,0,0.,4.8,0.,4.8,,0,0.,4.8,8.,4.8
1979-03-02 03:16:34.170 ,2,0,,0,0.,4.8,0.,4.8,,0,0.,4.8,11.,4.8
1979-03-02 03:16:38.970 ,1,0,,0,0.,4.8,0.,4.8,,0,0.,4.8,11.,4.8
1979-03-02 03:16:43.770 ,1,0,,0,1.,4.8,0.,4.8,,0,0.,4.8,11.,4.8
1979-03-02 03:16:48.570 ,1,0,,0,15.,4.8,1.,4.8,,0,0.,4.8,13.,4.8
1979-03-02 03:16:53.370 ,1,0,,0,72.,4.8,2.,4.8,,0,0.,4.8,11.,4.8
1979-03-02 03:16:58.170 ,1,0,,0,58.,4.8,4.,4.8,,0,0.,4.8,5.,4.8
1979-03-02 03:17:02.970 ,0,0,,0,72.,4.8,9.,4.8,,0,0.,4.8,10.,4.8
1979-03-02 03:17:07.770 ,0,0,,0,86.,4.8,19.,4.8,,0,0.,4.8,9.,4.8
1979-03-02 03:17:12.570 ,0,0,,0,72.,4.8,7.,4.8,,0,0.,4.8,12.,4.8
1979-03-02 03:17:17.360 ,0,0,,0,0.,4.8,0.,4.8,,0,0.,4.8,10.,4.8
1979-03-02 03:17:22.170 ,0,0,,0,0.,4.8,0.,4.8,,0,0.,4.8,13.,4.8
1979-03-02 03:17:26.960 ,0,0,,0,0.,4.8,0.,4.8,,0,0.,4.8,9.,4.8
1979-03-02 03:17:31.770 ,0,0,,0,0.,4.8,0.,4.8,,0,0.,4.8,11.,4.8
1979-03-02 03:17:36.560 ,0,0,,0,15.,4.8,5.,4.8,,0,0.,4.8,12.,4.8
1979-03-02 03:17:41.360 ,0,0,,0,108.,4.8,12.,4.8,,0,0.,4.8,9.,4.8
1979-03-02 03:17:46.160 ,0,0,,0,90.,4.8,8.,4.8,,0,0.,4.8,8.,4.8
1979-03-02 03:17:50.960 ,1,0,,0,84.,4.8,16.,4.8,,0,0.,4.8,11.,4.8
1979-03-02 03:17:55.770 ,1,0,,0,84.,4.8,8.,4.8,,0,0.,4.8,13.,4.8
1979-03-02 03:18:00.560 ,1,0,,0,63.,4.8,10.,4.8,,0,0.,4.8,11.,4.8
1979-03-02 03:18:05.360 ,1,0,,0,0.,4.8,0.,4.8,,0,0.,4.8,9.,4.8
1979-03-02 03:18:10.170 ,1,0,,0,0.,4.8,0.,4.8,,0,0.,4.8,16.,4.8
1979-03-02 03:18:14.960 ,2,0,,0,0.,4.8,0.,4.8,,0,0.,4.8,12.,4.8
1979-03-02 03:18:19.770 ,2,0,,0,0.,4.8,0.,4.8,,0,0.,4.8,10.,4.8
1979-03-02 03:18:24.560 ,2,0,,0,12.,4.8,4.,4.8,,0,0.,4.8,8.,4.8
1979-03-02 03:18:29.360 ,2,0,,0,84.,4.8,16.,4.8,,0,0.,4.8,11.,4.8
1979-03-02 03:18:34.160 ,2,0,,0,80.,4.8,10.,4.8,,0,0.,4.8,15.,4.8
1979-03-02 03:18:38.960 ,3,0,,0,80.,4.8,18.,4.8,,0,0.,4.8,7.,4.8
1979-03-02 03:18:43.770 ,3,0,,0,82.,4.8,13.,4.8,,0,0.,4.8,15.,4.8
1979-03-02 03:18:48.560 ,3,0,,0,80.,4.8,16.,4.8,,0,0.,4.8,22.,4.8
1979-03-02 03:18:53.360 ,3,0,,0,0.,4.8,0.,4.8,,0,0.,4.8,11.,4.8
1979-03-02 03:18:58.170 ,3,0,,0,0.,4.8,0.,4.8,,0,0.,4.8,21.,4.8
1979-03-02 03:19:02.960 ,4,0,,0,0.,4.8,0.,4.8,,0,0.,4.8,11.,4.8
1979-03-02 03:19:07.770 ,4,0,,0,0.,4.8,0.,4.8,,0,0.,4.8,13.,4.8
1979-03-02 03:19:12.560 ,4,0,,0,15.,4.8,5.,4.8,,0,0.,4.8,15.,4.8
1979-03-02 03:19:17.360 ,4,0,,0,132.,4.8,19.,4.8,,0,0.,4.8,16.,4.8
1979-03-02 03:19:22.160 ,4,0,,0,140.,4.8,23.,4.8,,0,0.,4.8,20.,4.8
1979-03-02 03:19:26.960 ,5,0,,0,140.,4.8,34.,4.8,,0,0.,4.8,16.,4.8
1979-03-02 03:19:31.770 ,5,0,,0,128.,4.8,26.,4.8,,0,0.,4.8,29.,4.8
1979-03-02 03:19:36.560 ,5,0,,0,160.,4.8,35.,4.8,,0,0.,4.8,22.,4.8
1979-03-02 03:19:41.360 ,5,0,,0,1.,4.8,0.,4.8,,0,0.,4.8,25.,4.8
1979-03-02 03:19:46.160 ,5,0,,0,0.,4.8,0.,4.8,,0,0.,4.8,23.,4.8
1979-03-02 03:19:50.960 ,6,0,,0,0.,4.8,0.,4.8,,0,0.,4.8,30.,4.8
1979-03-02 03:19:55.770 ,6,0,,0,0.,4.8,0.,4.8,,0,0.,4.8,32.,4.8
1979-03-02 03:20:00.560 ,6,0,,0,44.,4.8,4.,4.8,,0,0.,4.8,50.,4.8
1979-03-02 03:20:05.360 ,6,0,,0,280.,4.8,45.,4.8,,0,0.,4.8,44.,4.8
1979-03-02 03:20:10.170 ,6,0,,0,252.,4.8,43.,4.8,,0,0.,4.8,48.,4.8
1979-03-02 03:20:14.960 ,7,0,,0,264.,4.8,32.,4.8,,0,0.,4.8,26.,4.8
1979-03-02 03:20:19.770 ,7,0,,0,204.,4.8,18.,4.8,,0,0.,4.8,32.,4.8
1979-03-02 03:20:24.560 ,7,0,,0,11.,4.8,0.,4.8,,0,0.,4.8,0.,4.8
1979-03-02 03:20:29.360 ,7,0,,0,0.,4.8,0.,4.8,,0,0.,4.8,0.,4.8
1979-03-02 03:20:34.160 ,7,0,,0,0.,4.8,0.,4.8,,0,0.,4.8,0.,4.8
1979-03-02 03:20:38.960 ,7,0,,0,0.,4.8,0.,4.8,,0,0.,4.8,0.,4.8
1979-03-02 03:20:43.770 ,7,0,,0,0.,4.8,0.,4.8,,0,0.,4.8,0.,4.8
1979-03-02 03:20:48.560 ,7,0,,0,1.,4.8,0.,4.8,,0,0.,4.8,0.,4.8
1979-03-02 03:20:53.360 ,7,0,,0,10.,4.8,0.,4.8,,0,0.,4.8,0.,4.8
1979-03-02 03:20:58.160 ,7,0,,0,7.,4.8,0.,4.8,,0,0.,4.8,0.,4.8
1979-03-02 03:21:02.960 ,6,0,,0,6.,4.8,0.,4.8,,0,0.,4.8,0.,4.8
1979-03-02 03:21:07.770 ,6,0,,0,86.,4.8,18.,4.8,,0,0.,4.8,15.,4.8
1979-03-02 03:21:12.560 ,6,0,,0,228.,4.8,34.,4.8,,0,0.,4.8,41.,4.8
1979-03-02 03:21:17.360 ,6,0,,0,0.,4.8,0.,4.8,,0,0.,4.8,39.,4.8
1979-03-02 03:21:22.160 ,6,0,,0,0.,4.8,0.,4.8,,0,0.,4.8,46.,4.8
1979-03-02 03:21:26.960 ,5,0,,0,0.,4.8,0.,4.8,,0,0.,4.8,47.,4.8
1979-03-02 03:21:31.770 ,5,0,,0,0.,4.8,0.,4.8,,0,0.,4.8,25.,4.8
1979-03-02 03:21:36.560 ,5,0,,0,29.,4.8,4.,4.8,,0,0.,4.8,29.,4.8
1979-03-02 03:21:41.360 ,5,0,,0,188.,4.8,41.,4.8,,0,0.,4.8,33.,4.8
1979-03-02 03:21:46.160 ,5,0,,0,184.,4.8,34.,4.8,,0,0.,4.8,37.,4.8
1979-03-02 03:21:50.960 ,4,0,,0,208.,4.8,38.,4.8,,0,0.,4.8,32.,4.8
1979-03-02 03:21:55.770 ,4,0,,0,204.,4.8,41.,4.8,,0,0.,4.8,30.,4.8
1979-03-02 03:22:00.560 ,4,0,,0,144.,4.8,27.,4.8,,0,0.,4.8,27.,4.8
1979-03-02 03:22:05.360 ,4,0,,0,0.,4.8,0.,4.8,,0,0.,4.8,23.,4.8
1979-03-02 03:22:10.170 ,4,0,,0,0.,4.8,0.,4.8,,0,0.,4.8,20.,4.8
1979-03-02 03:22:14.960 ,3,0,,0,0.,4.8,0.,4.8,,0,0.,4.8,14.,4.8
1979-03-02 03:22:19.770 ,3,0,,0,0.,4.8,0.,4.8,,0,0.,4.8,19.,4.8
1979-03-02 03:22:24.560 ,3,0,,0,20.,4.8,4.,4.8,,0,0.,4.8,14.,4.8
1979-03-02 03:22:29.360 ,3,0,,0,116.,4.8,13.,4.8,,0,0.,4.8,16.,4.8
1979-03-02 03:22:34.160 ,3,0,,0,118.,4.8,20.,4.8,,0,0.,4.8,19.,4.8
1979-03-02 03:22:38.960 ,2,0,,0,118.,4.8,23.,4.8,,0,0.,4.8,18.,4.8
1979-03-02 03:22:43.770 ,2,0,,0,116.,4.8,25.,4.8,,0,0.,4.8,16.,4.8
1979-03-02 03:22:48.560 ,2,0,,0,61.,4.8,8.,4.8,,0,0.,4.8,11.,4.8
1979-03-02 03:22:53.360 ,2,0,,0,0.,4.8,0.,4.8,,0,0.,4.8,7.,4.8
1979-03-02 03:22:58.160 ,2,0,,0,0.,4.8,0.,4.8,,0,0.,4.8,7.,4.8
1979-03-02 03:23:02.970 ,1,0,,0,0.,4.8,0.,4.8,,0,0.,4.8,8.,4.8
1979-03-02 03:23:07.770 ,1,0,,0,0.,4.8,0.,4.8,,0,0.,4.8,10.,4.8
1979-03-02 03:23:12.570 ,1,0,,0,16.,4.8,1.,4.8,,0,0.,4.8,11.,4.8
1979-03-02 03:23:17.370 ,1,0,,0,96.,4.8,18.,4.8,,0,0.,4.8,14.,4.8
1979-03-02 03:23:22.170 ,1,0,,0,74.,4.8,4.,4.8,,0,0.,4.8,15.,4.8
1979-03-02 03:23:26.970 ,0,0,,0,82.,4.8,8.,4.8,,0,0.,4.8,11.,4.8
1979-03-02 03:23:31.770 ,0,0,,0,90.,4.8,13.,4.8,,0,0.,4.8,12.,4.8
1979-03-02 03:23:36.570 ,0,0,,0,86.,4.8,11.,4.8,,0,0.,4.8,11.,4.8
1979-03-02 03:23:41.370 ,0,0,,0,0.,4.8,0.,4.8,,0,0.,4.8,13.,4.8
1979-03-02 03:23:46.170 ,0,0,,0,0.,4.8,0.,4.8,,0,0.,4.8,14.,4.8
1979-03-02 03:23:50.970 ,0,0,,0,0.,4.8,0.,4.8,,0,0.,4.8,14.,4.8
1979-03-02 03:23:55.770 ,0,0,,0,0.,4.8,0.,4.8,,0,0.,4.8,15.,4.8
1979-03-02 03:24:00.570 ,0,0,,0,19.,4.8,5.,4.8,,0,0.,4.8,13.,4.8
1979-03-02 03:24:05.370 ,0,0,,0,100.,4.8,10.,4.8,,0,0.,4.8,9.,4.8
1979-03-02 03:24:10.170 ,0,0,,0,96.,4.8,13.,4.8,,0,0.,4.8,13.,4.8
1979-03-02 03:24:14.970 ,1,0,,0,102.,4.8,12.,4.8,,0,0.,4.8,21.,4.8
1979-03-02 03:24:19.770 ,1,0,,0,102.,4.8,8.,4.8,,0,0.,4.8,19.,4.8
1979-03-02 03:24:24.570 ,1,0,,0,76.,4.8,9.,4.8,,0,0.,4.8,12.,4.8
1979-03-02 03:24:29.370 ,1,0,,0,0.,4.8,0.,4.8,,0,0.,4.8,18.,4.8
1979-03-02 03:24:34.170 ,1,0,,0,0.,4.8,0.,4.8,,0,0.,4.8,6.,4.8
1979-03-02 03:24:38.970 ,2,0,,0,0.,4.8,0.,4.8,,0,0.,4.8,19.,4.8
1979-03-02 03:24:43.770 ,2,0,,0,0.,4.8,0.,4.8,,0,0.,4.8,10.,4.8
1979-03-02 03:24:48.570 ,2,0,,0,12.,4.8,4.,4.8,,0,0.,4.8,13.,4.8
1979-03-02 03:24:53.370 ,2,0,,0,100.,4.8,22.,4.8,,0,0.,4.8,9.,4.8
1979-03-02 03:24:58.170 ,2,0,,0,106.,4.8,15.,4.8,,0,0.,4.8,10.,4.8
1979-03-02 03:25:02.970 ,3,0,,0,88.,4.8,16.,4.8,,0,0.,4.8,11.,4.8
1979-03-02 03:25:07.770 ,3,0,,0,98.,4.8,13.,4.8,,0,0.,4.8,13.,4.8
1979-03-02 03:25:12.570 ,3,0,,0,108.,4.8,23.,4.8,,0,0.,4.8,14.,4.8
1979-03-02 03:25:17.370 ,3,0,,0,0.,4.8,0.,4.8,,0,0.,4.8,20.,4.8
1979-03-02 03:25:22.170 ,3,0,,0,0.,4.8,0.,4.8,,0,0.,4.8,18.,4.8
1979-03-02 03:25:26.970 ,4,0,,0,0.,4.8,0.,4.8,,0,0.,4.8,19.,4.8
1979-03-02 03:25:31.770 ,4,0,,0,0.,4.8,0.,4.8,,0,0.,4.8,21.,4.8
1979-03-02 03:25:36.570 ,4,0,,0,33.,4.8,4.,4.8,,0,0.,4.8,17.,4.8
1979-03-02 03:25:41.370 ,4,0,,0,164.,4.8,25.,4.8,,0,0.,4.8,21.,4.8
1979-03-02 03:25:46.170 ,4,0,,0,168.,4.8,28.,4.8,,0,0.,4.8,31.,4.8
1979-03-02 03:25:50.970 ,5,0,,0,156.,4.8,26.,4.8,,0,0.,4.8,25.,4.8
1979-03-02 03:25:55.770 ,5,0,,0,208.,4.8,34.,4.8,,0,0.,4.8,22.,4.8
1979-03-02 03:26:00.570 ,5,0,,0,220.,4.8,41.,4.8,,0,0.,4.8,40.,4.8
1979-03-02 03:26:05.370 ,5,0,,0,1.,4.8,0.,4.8,,0,0.,4.8,25.,4.8
1979-03-02 03:26:10.170 ,5,0,,0,0.,4.8,0.,4.8,,0,0.,4.8,35.,4.8
1979-03-02 03:26:14.970 ,6,0,,0,0.,4.8,0.,4.8,,0,0.,4.8,44.,4.8
1979-03-02 03:26:19.770 ,6,0,,0,0.,4.8,0.,4.8,,0,0.,4.8,42.,4.8
1979-03-02 03:26:24.570 ,6,0,,0,45.,4.8,10.,4.8,,0,0.,4.8,33.,4.8
1979-03-02 03:26:29.370 ,6,0,,0,252.,4.8,47.,4.8,,0,0.,4.8,34.,4.8
1979-03-02 03:26:34.170 ,6,0,,0,256.,4.8,48.,4.8,,0,0.,4.8,41.,4.8
1979-03-02 03:26:38.970 ,7,0,,0,224.,4.8,45.,4.8,,0,0.,4.8,38.,4.8
1979-03-02 03:26:43.770 ,7,0,,0,160.,4.8,28.,4.8,,0,0.,4.8,23.,4.8
1979-03-02 03:26:48.570 ,7,0,,0,12.,4.8,0.,4.8,,0,0.,4.8,0.,4.8
1979-03-02 03:26:53.370 ,7,0,,0,0.,4.8,0.,4.8,,0,0.,4.8,0.,4.8
1979-03-02 03:26:58.170 ,7,0,,0,0.,4.8,0.,4.8,,0,0.,4.8,0.,4.8
1979-03-02 03:27:02.970 ,7,0,,0,0.,4.8,0.,4.8,,0,0.,4.8,0.,4.8
1979-03-02 03:27:07.770 ,7,0,,0,1.,4.8,0.,4.8,,0,0.,4.8,0.,4.8
1979-03-02 03:27:12.570 ,7,0,,0,1.,4.8,0.,4.8,,0,0.,4.8,0.,4.8
1979-03-02 03:27:17.370 ,7,0,,0,9.,4.8,0.,4.8,,0,0.,4.8,0.,4.8
1979-03-02 03:27:22.170 ,7,0,,0,13.,4.8,0.,4.8,,0,0.,4.8,0.,4.8
1979-03-02 03:27:26.970 ,6,0,,0,10.,4.8,0.,4.8,,0,0.,4.8,0.,4.8
1979-03-02 03:27:31.770 ,6,0,,0,90.,4.8,13.,4.8,,0,0.,4.8,15.,4.8
1979-03-02 03:27:36.570 ,6,0,,0,236.,4.8,45.,4.8,,0,0.,4.8,38.,4.8
1979-03-02 03:27:41.370 ,6,0,,0,0.,4.8,0.,4.8,,0,0.,4.8,40.,4.8
1979-03-02 03:27:46.170 ,6,0,,0,0.,4.8,0.,4.8,,0,0.,4.8,41.,4.8
1979-03-02 03:27:50.970 ,5,0,,0,0.,4.8,0.,4.8,,0,0.,4.8,40.,4.8
1979-03-02 03:27:55.770 ,5,0,,0,0.,4.8,0.,4.8,,0,0.,4.8,29.,4.8
1979-03-02 03:28:00.570 ,5,0,,0,40.,4.8,3.,4.8,,0,0.,4.8,53.,4.8
1979-03-02 03:28:05.370 ,5,0,,0,264.,4.8,42.,4.8,,0,0.,4.8,37.,4.8
1979-03-02 03:28:10.170 ,5,0,,0,264.,4.8,37.,4.8,,0,0.,4.8,28.,4.8
1979-03-02 03:28:14.970 ,4,0,,0,288.,4.8,43.,4.8,,0,0.,4.8,44.,4.8
1979-03-02 03:28:19.770 ,4,0,,0,256.,4.8,40.,4.8,,0,0.,4.8,36.,4.8
1979-03-02 03:28:24.570 ,4,0,,0,152.,4.8,18.,4.8,,0,0.,4.8,33.,4.8
1979-03-02 03:28:29.370 ,4,0,,0,0.,4.8,0.,4.8,,0,0.,4.8,33.,4.8
1979-03-02 03:28:34.170 ,4,0,,0,0.,4.8,0.,4.8,,0,0.,4.8,15.,4.8
1979-03-02 03:28:38.970 ,3,0,,0,0.,4.8,0.,4.8,,0,0.,4.8,25.,4.8
1979-03-02 03:28:43.770 ,3,0,,0,0.,4.8,0.,4.8,,0,0.,4.8,22.,4.8
1979-03-02 03:28:48.570 ,3,0,,0,23.,4.8,4.,4.8,,0,0.,4.8,17.,4.8
1979-03-02 03:28:53.370 ,3,0,,0,140.,4.8,26.,4.8,,0,0.,4.8,20.,4.8
1979-03-02 03:28:58.170 ,3,0,,0,132.,4.8,26.,4.8,,0,0.,4.8,24.,4.8
1979-03-02 03:29:02.970 ,2,0,,0,136.,4.8,28.,4.8,,0,0.,4.8,26.,4.8
1979-03-02 03:29:07.770 ,2,0,,0,114.,4.8,14.,4.8,,0,0.,4.8,21.,4.8